Weather History for Adak, AK

Change the Weather History Date:

Thursday, December 6, 2012

  Actual Average Record
Temperature  
Mean Temperature 32 °F -  
Max Temperature 35 °F 37 °F 49 °F (1954)
Min Temperature 30 °F 29 °F -11 °F (2003)
Degree Days  
Heating Degree Days 32    
Moisture  
Dew Point 25 °F    
Average Humidity 73    
Maximum Humidity 87    
Minimum Humidity 56    
Precipitation  
Precipitation 0.00 in - - ()
Sea Level Pressure  
Sea Level Pressure 29.93 in    
Wind  
Wind Speed 16 mph (NE)    
Max Wind Speed 24 mph    
Max Gust Speed 30 mph    
Visibility 9 miles    
Events      
Averages and records for this station are not official NWS values.
T = Trace of Precipitation, MM = Missing Value Source: NWS Daily Summary

Daily Weather History Graph

Daily Weather History Graph

Search for Another Location

Airport:

Trip Planner

Search our weather history database for the weather conditions in past years. The results will help you decide how hot, cold, wet, or windy it might be!

Date:

Astronomy

Dec. 06, 2012 Rise Set
Actual Time 9:39 AM HAST 5:36 PM HAST
Civil Twilight 8:59 AM HAST 6:16 PM HAST
Nautical Twilight 8:16 AM HAST 6:59 PM HAST
Astronomical Twilight 7:35 AM HAST 7:40 PM HAST
Moon 1:22 AM HAST (12/6) 1:53 PM HAST (12/6)
Length of Visible Light 9h 17m
Length of Day
7h 57m
Waning Gibbous, 47% of the Moon is Illuminated
Dec 6
Waning Gibbous
Dec 12
New
Dec 19
First Quarter
Dec 28
Full
Jan 4
Last Quarter

Hourly Weather History & Observations

Time (HAST) Temp. Windchill Dew Point Humidity Pressure Visibility Wind Dir Wind Speed Gust Speed Precip Events Conditions
12:16 AM 33.8 °F 23.2 °F 30.2 °F 87% 30.02 in 10.0 mi ENE 17.3 mph - N/A   Overcast
12:36 AM 35.6 °F 26.2 °F 30.2 °F 81% 30.02 in 10.0 mi ENE 15.0 mph - N/A   Overcast
12:56 AM 33.8 °F 23.9 °F 30.2 °F 87% 30.02 in 10.0 mi ENE 15.0 mph - N/A   Overcast
1:36 AM 35.6 °F 25.9 °F 30.2 °F 81% 30.02 in 10.0 mi East 16.1 mph - N/A   Overcast
1:56 AM 33.8 °F 23.2 °F 30.2 °F 87% 30.02 in 10.0 mi ENE 17.3 mph - N/A   Overcast
2:16 AM 33.8 °F 22.5 °F 30.2 °F 87% 30.01 in 10.0 mi East 19.6 mph - N/A   Overcast
2:36 AM 35.6 °F 25.9 °F 30.2 °F 81% 30.01 in 10.0 mi East 16.1 mph - N/A   Overcast
2:56 AM 33.8 °F 23.2 °F 30.2 °F 87% 30.00 in 10.0 mi ENE 17.3 mph - N/A   Overcast
3:16 AM 33.8 °F 23.5 °F 30.2 °F 87% 30.00 in 10.0 mi ENE 16.1 mph - N/A   Overcast
3:36 AM 33.8 °F 22.5 °F 28.4 °F 81% 30.00 in 6.0 mi NE 19.6 mph - N/A   Overcast
3:56 AM 33.8 °F 25.8 °F 28.4 °F 81% 30.00 in 2.5 mi NE 10.4 mph - N/A   Overcast
4:16 AM 33.8 °F 24.3 °F 28.4 °F 81% 30.00 in 7.0 mi NE 13.8 mph 18.4 mph N/A   Overcast
4:36 AM 33.8 °F 22.8 °F 28.4 °F 81% 30.00 in 10.0 mi NE 18.4 mph - N/A   Overcast
4:56 AM 33.8 °F 22.5 °F 28.4 °F 81% 29.99 in 10.0 mi NE 19.6 mph - N/A   Overcast
5:16 AM 33.8 °F 22.5 °F 26.6 °F 75% 29.99 in 10.0 mi NE 19.6 mph 23.0 mph N/A   Overcast
5:36 AM 33.8 °F 23.5 °F 26.6 °F 75% 29.99 in 10.0 mi NE 16.1 mph 24.2 mph N/A   Overcast
5:56 AM 33.8 °F 22.8 °F 26.6 °F 75% 29.99 in 10.0 mi NE 18.4 mph - N/A   Overcast
6:16 AM 33.8 °F 23.5 °F 26.6 °F 75% 29.98 in 10.0 mi NE 16.1 mph 21.9 mph N/A   Overcast
6:36 AM 33.8 °F 23.2 °F 24.8 °F 70% 29.98 in 10.0 mi NE 17.3 mph - N/A   Overcast
6:56 AM 33.8 °F 24.8 °F 24.8 °F 70% 29.98 in 10.0 mi NNE 12.7 mph - N/A   Overcast
7:16 AM 33.8 °F 25.3 °F 24.8 °F 70% 29.98 in 10.0 mi NNE 11.5 mph - N/A   Overcast
7:36 AM 33.8 °F 24.8 °F 23.0 °F 65% 29.98 in 10.0 mi NE 12.7 mph - N/A   Overcast
7:56 AM 32.0 °F 24.8 °F 23.0 °F 69% 29.98 in 10.0 mi NNE 8.1 mph - N/A   Overcast
8:16 AM 32.0 °F 23.0 °F 21.2 °F 64% 29.97 in 10.0 mi NNE 11.5 mph - N/A   Overcast
8:36 AM 32.0 °F 24.8 °F 21.2 °F 64% 29.97 in 10.0 mi NNE 8.1 mph - N/A   Overcast
8:56 AM 33.8 °F 23.5 °F 23.0 °F 65% 29.97 in 10.0 mi NE 16.1 mph - N/A   Overcast
9:16 AM 33.8 °F 23.5 °F 21.2 °F 60% 29.97 in 10.0 mi NE 16.1 mph - N/A   Overcast
9:36 AM 33.8 °F 23.2 °F 19.4 °F 56% 29.97 in 10.0 mi NE 17.3 mph - N/A   Overcast
9:56 AM 33.8 °F 23.2 °F 19.4 °F 56% 29.97 in 10.0 mi NE 17.3 mph - N/A   Overcast
10:16 AM 33.8 °F 23.2 °F 21.2 °F 60% 29.97 in 10.0 mi NE 17.3 mph - N/A   Overcast
10:36 AM 33.8 °F 22.8 °F 23.0 °F 65% 29.97 in 10.0 mi NE 18.4 mph 23.0 mph N/A   Overcast
10:56 AM 33.8 °F 23.9 °F 23.0 °F 65% 29.96 in 10.0 mi NE 15.0 mph - N/A   Mostly Cloudy
11:16 AM 33.8 °F 22.5 °F 24.8 °F 70% 29.96 in 10.0 mi NE 19.6 mph 24.2 mph N/A   Overcast
11:36 AM 33.8 °F 23.2 °F 24.8 °F 70% 29.95 in 10.0 mi NNE 17.3 mph 21.9 mph N/A   Overcast
11:56 AM 32.0 °F 22.1 °F 23.0 °F 69% 29.95 in 10.0 mi NNE 13.8 mph - N/A   Mostly Cloudy
12:16 PM 33.8 °F 23.5 °F 24.8 °F 70% 29.95 in 10.0 mi NE 16.1 mph - N/A   Mostly Cloudy
12:36 PM 33.8 °F 25.3 °F 23.0 °F 65% 29.95 in 10.0 mi NE 11.5 mph - N/A   Mostly Cloudy
12:56 PM 33.8 °F 23.2 °F 23.0 °F 65% 29.94 in 10.0 mi NE 17.3 mph - N/A   Overcast
1:16 PM 33.8 °F 24.8 °F 21.2 °F 60% 29.93 in 10.0 mi NE 12.7 mph - N/A   Mostly Cloudy
1:36 PM 33.8 °F 21.6 °F 24.8 °F 70% 29.93 in 10.0 mi ENE 23.0 mph 26.5 mph N/A   Scattered Clouds
1:56 PM 32.0 °F 20.5 °F 26.6 °F 80% 29.92 in 5.0 mi NE 18.4 mph - N/A   Mostly Cloudy
2:16 PM 33.8 °F 24.8 °F 24.8 °F 70% 29.92 in 7.0 mi NNE 12.7 mph - N/A   Overcast
2:36 PM 33.8 °F 23.5 °F 24.8 °F 70% 29.91 in 10.0 mi ENE 16.1 mph 19.6 mph N/A   Mostly Cloudy
2:56 PM 32.0 °F 22.1 °F 26.6 °F 80% 29.90 in 10.0 mi ENE 13.8 mph - N/A   Overcast
3:16 PM 33.8 °F 24.3 °F 24.8 °F 70% 29.90 in 10.0 mi NNE 13.8 mph - N/A   Overcast
3:36 PM 30.2 °F 19.8 °F 24.8 °F 80% 29.90 in 3.0 mi NE 13.8 mph - N/A   Overcast
3:56 PM 33.8 °F 23.9 °F 24.8 °F 70% 29.89 in 10.0 mi NNE 15.0 mph 20.7 mph N/A   Mostly Cloudy
4:16 PM 32.0 °F 21.2 °F 26.6 °F 80% 29.89 in 10.0 mi NE 16.1 mph 21.9 mph N/A   Mostly Cloudy
4:36 PM 32.0 °F 22.1 °F 24.8 °F 75% 29.88 in 10.0 mi NNE 13.8 mph - N/A   Mostly Cloudy
4:56 PM 32.0 °F 20.5 °F 24.8 °F 75% 29.88 in 10.0 mi NE 18.4 mph 25.3 mph N/A   Mostly Cloudy
5:16 PM 32.0 °F 21.6 °F 21.2 °F 64% 29.88 in 10.0 mi NNE 15.0 mph 19.6 mph N/A   Scattered Clouds
5:36 PM 30.2 °F 19.8 °F 24.8 °F 80% 29.88 in 10.0 mi NNE 13.8 mph - N/A   Mostly Cloudy
5:56 PM 30.2 °F 19.8 °F 23.0 °F 75% 29.87 in 10.0 mi NNE 13.8 mph - N/A   Mostly Cloudy
6:16 PM 30.2 °F 20.8 °F 24.8 °F 80% 29.87 in 10.0 mi NNE 11.5 mph - N/A   Partly Cloudy
6:36 PM 30.2 °F 16.5 °F 23.0 °F 75% 29.87 in 2.0 mi NE 24.2 mph 29.9 mph N/A   Mostly Cloudy
6:56 PM 30.2 °F 18.5 °F 24.8 °F 80% 29.87 in 10.0 mi NNE 17.3 mph 20.7 mph N/A   Mostly Cloudy
7:16 PM 30.2 °F 19.3 °F 24.8 °F 80% 29.86 in 10.0 mi NNE 15.0 mph - N/A   Scattered Clouds
7:36 PM 30.2 °F 19.3 °F 23.0 °F 75% 29.85 in 10.0 mi NNE 15.0 mph 19.6 mph N/A   Scattered Clouds
7:56 PM 30.2 °F 19.8 °F 26.6 °F 86% 29.85 in 5.0 mi North 13.8 mph - N/A   Overcast
8:16 PM 30.2 °F 19.8 °F 24.8 °F 80% 29.85 in 10.0 mi NNE 13.8 mph - N/A   Overcast
8:36 PM 30.2 °F 19.3 °F 26.6 °F 86% 29.85 in 5.0 mi NNE 15.0 mph - N/A   Mostly Cloudy
8:56 PM 30.2 °F 18.9 °F 26.6 °F 86% 29.85 in 10.0 mi NE 16.1 mph - N/A   Overcast
9:16 PM 30.2 °F 19.8 °F 24.8 °F 80% 29.84 in 10.0 mi NE 13.8 mph 19.6 mph N/A   Mostly Cloudy
9:36 PM 32.0 °F 21.2 °F 21.2 °F 64% 29.84 in 10.0 mi NNE 16.1 mph 25.3 mph N/A   Mostly Cloudy
9:56 PM 33.8 °F 21.9 °F 21.2 °F 60% 29.83 in 10.0 mi NE 21.9 mph 25.3 mph N/A   Mostly Cloudy
10:16 PM 32.0 °F 19.8 °F 24.8 °F 75% 29.83 in 10.0 mi NE 20.7 mph 29.9 mph N/A   Overcast
10:36 PM 30.2 °F 17.8 °F 21.2 °F 69% 29.82 in 10.0 mi NNE 19.6 mph 28.8 mph N/A   Scattered Clouds
10:56 PM 30.2 °F 18.5 °F 21.2 °F 69% 29.82 in 10.0 mi NNE 17.3 mph - N/A   Scattered Clouds
11:16 PM 33.8 °F 22.5 °F 19.4 °F 56% 29.81 in 10.0 mi NNE 19.6 mph - N/A   Mostly Cloudy
11:36 PM 30.2 °F 18.5 °F 19.4 °F 64% 29.80 in 10.0 mi NNE 17.3 mph - N/A   Mostly Cloudy
11:56 PM 32.0 °F 19.8 °F 21.2 °F 64% 29.79 in 10.0 mi NE 20.7 mph 24.2 mph N/A   Scattered Clouds